Location: Roanoke
(37.2710°N, 79.9420°W)
Time: 11:24:35
(UTC-05:00)

S-56A Canister/Altair - Pass Details

Date: 19 November 2019
Orbit: 633 x 2499 km, 38.9° (Epoch: 06 December)

Event Time Altitude Azimuth Distance (km) Brightness Sun altitude
Rises 22:29:31 0° 285° (WNW) 3,601 - -62.7°
Reaches altitude 10° 22:32:34 10° 277° (W) 2,428 - -63.2°
Maximum altitude 22:37:29 36° 211° (SSW) 1,086 - -64.0°
Drops below altitude 10° 22:41:36 10° 144° (SE) 2,015 - -64.6°
Sets 22:43:55 0° 135° (SE) 2,905 - -65.0°
